Date String (YYYY-MM-DD hh:mm:ss) UTC,Instrument flags,absolute air pressure of the measurement (hPa),sample flow rate (lpm),inlet stack bypass flow (lpm),air temperature of the measurement (°C),ambient temperature measured by the external sensor (°C),aerosol sample conditioner tube jacket temperature (°C),OPC LED temperature (°C),internal box temperature (°C),relative humidity of the measurement (%),span deviation,mass concentration of particles derived from Lorenz-Mie calculation of OPC scattering (μg/m³),mass concentration of particles derived from Lorenz-Mie calculation of OPC scattering (μg/m³),mass concentration of particles derived from Lorenz-Mie calculation of OPC scattering (μg/m³)
DateTimeUTC,F1_M11,P_M11,Q1_M11,Q2_M11,T1_M11,T2_M11,T3_M11,T4_M11,T5_M11,U1_M11,ZSPAN_M11,X2_M11,X0_M11,X1_M11
2024-02-08 16:00:00,SystemResetWarning,0816.2,5.01,000.00,018.4,017.3,000.0,026.9,020.0,12.1,0000.0,0000.45,0001.77,0000.17
2024-02-08 16:01:00,SystemResetWarning,0816.1,5.01,000.00,018.4,017.3,000.0,026.9,020.0,13.0,0000.0,0000.45,0001.24,0000.16
2024-02-08 16:02:00,SystemResetWarning,0816.1,5.00,000.00,018.3,017.3,000.0,026.9,020.0,11.9,0000.0,0000.42,0001.06,0000.16
2024-02-08 16:03:00,SystemResetWarning,0816.1,5.00,000.00,018.3,017.3,000.0,026.9,020.0,12.1,0000.0,0000.38,0000.78,0000.15
2024-02-08 16:04:00,SystemResetWarning,0816.1,5.00,000.00,018.4,017.4,000.0,026.9,020.0,11.7,0000.0,0000.37,0000.77,0000.16
2024-02-08 16:05:00,SystemResetWarning,0816.0,5.01,000.00,018.4,018.0,000.0,027.0,020.4,12.6,0000.0,0000.39,0000.83,0000.16
2024-02-08 16:06:00,SystemResetWarning,0816.1,5.00,000.00,018.7,018.8,000.0,027.1,020.9,12.9,0000.0,0000.32,0000.68,0000.16
2024-02-08 16:07:00,SystemResetWarning,0816.1,5.00,000.00,018.8,018.9,000.0,027.0,020.8,12.8,0000.0,0000.31,0000.64,0000.15
2024-02-08 16:08:00,SystemResetWarning,0816.1,4.99,000.00,018.8,018.7,000.0,026.9,020.6,12.6,0000.0,0000.30,0000.62,0000.15
2024-02-08 16:09:00,SystemResetWarning,0816.1,5.00,000.00,018.8,018.6,000.0,026.9,020.4,13.0,0000.0,0000.29,0000.60,0000.15
2024-02-08 16:10:00,SystemResetWarning,0816.0,5.01,000.00,018.7,018.4,000.0,026.9,020.3,12.5,0000.0,0000.25,0000.50,0000.16
2024-02-08 16:11:00,SystemResetWarning,0816.1,5.01,000.00,018.7,018.3,000.0,026.9,020.3,12.7,0000.0,0000.27,0000.53,0000.18
2024-02-08 16:12:00,SystemResetWarning,0816.1,5.00,000.00,018.7,018.2,000.0,026.9,020.2,12.8,0000.0,0000.27,0000.49,0000.18
2024-02-08 16:13:00,SystemResetWarning,0816.1,4.99,000.00,018.6,018.1,000.0,026.9,020.2,12.2,0000.0,0000.28,0000.49,0000.19
2024-02-08 16:14:00,SystemResetWarning,0816.2,5.00,000.00,018.6,018.0,000.0,026.9,020.2,12.6,0000.0,0000.28,0000.51,0000.19
2024-02-08 16:15:00,SystemResetWarning,0816.2,4.99,000.00,018.6,017.9,000.0,026.8,020.1,13.0,0000.0,0000.29,0000.54,0000.20
2024-02-08 16:16:00,SystemResetWarning,0816.2,5.01,000.00,018.6,017.8,000.0,026.8,020.1,12.8,0000.0,0000.26,0000.45,0000.19
2024-02-08 16:17:00,SystemResetWarning,0816.3,5.01,000.00,018.5,017.8,000.0,026.8,020.0,11.8,0000.0,0000.27,0000.47,0000.19
2024-02-08 16:18:00,SystemResetWarning,0816.4,5.00,000.00,018.5,017.7,000.0,026.9,020.0,11.7,0000.0,0000.28,0000.51,0000.20
2024-02-08 16:19:00,SystemResetWarning,0816.4,4.99,000.00,018.5,017.6,000.0,026.9,020.0,12.4,0000.0,0000.30,0000.60,0000.19
2024-02-08 16:20:00,SystemResetWarning,0816.5,4.98,000.00,018.5,017.6,000.0,026.9,020.0,12.4,0000.0,0000.32,0000.66,0000.20
2024-02-08 16:21:00,SystemResetWarning,0816.5,5.01,000.00,018.4,017.6,000.0,026.9,020.0,11.9,0000.0,0000.32,0000.68,0000.19
2024-02-08 16:22:00,SystemResetWarning,0816.5,5.00,000.00,018.4,017.6,000.0,026.9,020.0,12.2,0000.0,0000.32,0000.76,0000.18
2024-02-08 16:23:00,SystemResetWarning,0816.4,5.00,000.00,018.4,017.6,000.0,026.9,020.0,12.7,0000.0,0000.33,0000.86,0000.17
2024-02-08 16:24:00,SystemResetWarning,0816.5,4.99,000.00,018.4,017.5,000.0,026.9,020.0,13.4,0000.0,0000.32,0000.85,0000.17
2024-02-08 16:25:00,SystemResetWarning,0816.5,4.99,000.00,018.4,017.5,000.0,026.9,020.0,13.2,0000.0,0000.32,0000.85,0000.16
2024-02-08 16:26:00,SystemResetWarning,0816.5,5.00,000.00,018.4,017.5,000.0,026.9,020.0,13.0,0000.0,0000.33,0000.87,0000.16
2024-02-08 16:27:00,SystemResetWarning,0816.4,5.01,000.00,018.4,017.6,000.0,026.9,020.0,13.0,0000.0,0000.33,0000.88,0000.16
2024-02-08 16:28:00,SystemResetWarning,0816.4,5.01,000.00,018.4,017.5,000.0,026.9,020.0,12.9,0000.0,0000.33,0000.87,0000.16
2024-02-08 16:29:00,SystemResetWarning,0816.5,4.99,000.00,018.4,017.5,000.0,026.9,020.0,12.9,0000.0,0000.33,0000.89,0000.16
2024-02-08 16:30:00,SystemResetWarning,0816.5,4.99,000.00,018.4,017.5,000.0,026.9,020.0,12.2,0000.0,0000.32,0000.82,0000.16
2024-02-08 16:31:00,SystemResetWarning,0816.5,5.01,000.00,018.4,017.5,000.0,026.9,020.0,12.0,0000.0,0000.32,0000.83,0000.16
2024-02-08 16:32:00,SystemResetWarning,0816.6,5.00,000.00,018.4,017.5,000.0,026.9,020.0,13.0,0000.0,0000.31,0000.83,0000.16
2024-02-08 16:33:00,SystemResetWarning,0816.5,5.00,000.00,018.4,017.5,000.0,026.9,020.0,12.9,0000.0,0000.29,0000.75,0000.16
2024-02-08 16:34:00,SystemResetWarning,0816.5,5.00,000.00,018.4,017.5,000.0,026.9,020.0,13.0,0000.0,0000.26,0000.58,0000.16
2024-02-08 16:35:00,SystemResetWarning,0816.5,5.00,000.00,018.4,017.5,000.0,026.9,020.0,12.9,0000.0,0000.25,0000.54,0000.16
2024-02-08 16:36:00,SystemResetWarning,0816.5,5.00,000.00,018.4,017.5,000.0,026.9,020.0,12.3,0000.0,0000.24,0000.51,0000.16
2024-02-08 16:37:00,SystemResetWarning,0816.6,5.00,000.00,018.4,017.5,000.0,026.9,020.0,12.3,0000.0,0000.22,0000.44,0000.17
2024-02-08 16:38:00,SystemResetWarning,0816.5,5.00,000.00,018.4,017.5,000.0,026.9,020.0,12.0,0000.0,0000.21,0000.42,0000.16
2024-02-08 16:39:00,SystemResetWarning,0816.6,5.00,000.00,018.4,017.5,000.0,026.9,020.0,12.2,0000.0,0000.21,0000.42,0000.16
2024-02-08 16:40:00,SystemResetWarning,0816.6,5.01,000.00,018.4,017.5,000.0,026.9,020.0,12.6,0000.0,0000.20,0000.39,0000.17
2024-02-08 16:41:00,SystemResetWarning,0816.7,5.00,000.00,018.4,017.5,000.0,026.9,020.0,12.7,0000.0,0000.21,0000.96,0000.17
2024-02-08 16:42:00,SystemResetWarning,0816.7,5.00,000.00,018.4,017.5,000.0,026.9,020.0,12.7,0000.0,0000.21,0001.78,0000.17
2024-02-08 16:43:00,SystemResetWarning,0816.7,4.99,000.00,018.4,017.4,000.0,026.9,020.0,13.5,0000.0,0000.21,0001.73,0000.17
2024-02-08 16:44:00,SystemResetWarning,0816.6,5.00,000.00,018.4,017.4,000.0,026.9,020.0,14.0,0000.0,0000.22,0001.74,0000.17
2024-02-08 16:45:00,SystemResetWarning,0816.6,4.99,000.00,018.4,017.4,000.0,026.9,020.0,14.1,0000.0,0000.25,0001.99,0000.18
2024-02-08 16:46:00,SystemResetWarning,0816.6,5.00,000.00,018.4,017.4,000.0,026.9,020.0,13.8,0000.0,0000.28,0002.44,0000.19
2024-02-08 16:47:00,SystemResetWarning,0816.7,5.00,000.00,018.4,017.4,000.0,026.9,020.0,14.0,0000.0,0000.31,0002.51,0000.20
2024-02-08 16:48:00,SystemResetWarning,0816.7,5.00,000.00,018.3,017.4,000.0,026.9,020.0,14.2,0000.0,0000.35,0002.69,0000.22
2024-02-08 16:49:00,SystemResetWarning,0816.7,5.01,000.00,018.3,017.4,000.0,026.9,020.0,14.4,0000.0,0000.36,0002.80,0000.22
2024-02-08 16:50:00,SystemResetWarning,0816.7,5.00,000.00,018.3,017.4,000.0,026.9,020.0,14.3,0000.0,0000.40,0002.88,0000.22
2024-02-08 16:51:00,SystemResetWarning,0816.8,4.99,000.00,018.4,017.5,000.0,026.9,020.0,14.5,0000.0,0000.41,0002.90,0000.22
2024-02-08 16:52:00,SystemResetWarning,0816.8,5.00,000.00,018.4,017.5,000.0,026.9,020.0,14.6,0000.0,0000.41,0002.32,0000.22
2024-02-08 16:53:00,SystemResetWarning,0816.8,4.99,000.00,018.4,017.5,000.0,026.9,020.0,14.1,0000.0,0000.43,0001.56,0000.22
2024-02-08 16:54:00,SystemResetWarning,0816.8,5.00,000.00,018.4,017.5,000.0,026.9,020.0,14.1,0000.0,0000.46,0003.37,0000.22
2024-02-08 16:55:00,SystemResetWarning,0816.9,5.01,000.00,018.4,017.5,000.0,026.9,020.0,14.2,0000.0,0000.48,0003.48,0000.22
2024-02-08 16:56:00,SystemResetWarning,0816.9,5.01,000.00,018.4,017.5,000.0,026.9,020.0,13.8,0000.0,0000.48,0003.29,0000.21
2024-02-08 16:57:00,SystemResetWarning,0816.9,5.00,000.00,018.4,017.5,000.0,026.9,020.0,13.8,0000.0,0000.48,0002.94,0000.20
2024-02-08 16:58:00,SystemResetWarning,0816.9,5.00,000.00,018.4,017.5,000.0,026.9,020.0,13.9,0000.0,0000.48,0003.00,0000.19
2024-02-08 16:59:00,SystemResetWarning,0816.9,5.00,000.00,018.4,017.5,000.0,026.9,020.0,13.9,0000.0,0000.46,0002.86,0000.18
